sat.trackr.live / text

‹ back to catalog

STARLINK-37117

NORAD 68212 · 2026-053F

PAYLOAD ACTIVE UNKNOWN

§ Identity

Operator
Country
US
Launch date
2026-03-17
Launch site
AFWTR
Launch vehicle
Mass (kg)
RCS (m²)

Purposes: comms

External: N2YO · Heavens-Above · Gunter

§ Orbital elements

Epoch: 2026-09-19T02:04:34.703328Z

Period
93.91 min
Inclination
97.2853°
Eccentricity
0.0002049
Mean motion
15.33438975 rev/d
Perigee alt
464.2 km
Apogee alt
467.0 km
Semi-major
6,843.7 km
B*
5.9448e-5
RAAN
135.8368°
Arg perigee
89.9428°
Mean anomaly
270.2050°
Rev number
2,985

§ Raw data

STARLINK-371171 68212U 26053F   26262.08651277  .00001844  00000+0  59448-4 0  99992 68212  97.2853 135.8368 0002049  89.9428 270.2050 15.33438975 29852

JSON: /api/v1/satellites/68212 · /tle

For live sub-satellite position, see the globe view (requires WebGL).

§ Visibility from observer

Set your observer location to see the next 7 days of passes ≥ 10°. The values pass through the URL so the page stays shareable.

No JS? Fill the form by hand. The geolocation button needs JavaScript.